KI6SYE Weather Reports


time (UTC)temp
F
wind
direction
speed
knots
gust
knots
rain 1hr
in
rain 24hr
in
rain mn
in
humidity
%
barometer
mb
20260507052504 59 235 2.6 2.6 0.00 0.00 0.00 91 1017.4
20260507052000 59 261 2.6 2.6 0.00 0.00 0.00 91 1017.4
20260507051458 59 275 1.7 2.6 0.00 0.00 0.00 91 1017.5
20260507050954 59 274 2.6 2.6 0.00 0.00 0.00 91 1017.5
20260507050451 59 289 2.6 2.6 0.00 0.00 0.00 90 1017.3
20260507045948 60 310 2.6 4.3 0.00 0.00 0.00 90 1017.4
20260507045444 60 275 2.6 4.3 0.00 0.00 0.00 89 1017.2
20260507044942 60 274 4.3 5.2 0.00 0.00 0.00 89 1017.2
20260507044438 60 243 1.7 1.7 0.00 0.00 0.00 88 1017.2
20260507043934 60 218 4.3 6.1 0.00 0.00 0.00 87 1017.3
20260507043431 60 314 5.2 7.8 0.00 0.00 0.00 86 1017.2
20260507042927 60 271 4.3 6.1 0.00 0.00 0.00 87 1017.2
20260507042424 60 286 2.6 4.3 0.00 0.00 0.00 88 1017.0
20260507041920 60 239 1.7 2.6 0.00 0.00 0.00 89 1017.1
20260507041416 60 308 0.9 0.9 0.00 0.00 0.00 89 1017.2
20260507040914 60 273 1.7 2.6 0.00 0.00 0.00 89 1017.0
20260507040410 61 230 3.5 7.0 0.00 0.00 0.00 88 1016.7
20260507035906 61 247 1.7 2.6 0.00 0.00 0.00 88 1017.0
20260507035402 61 259 4.3 6.1 0.00 0.00 0.00 88 1017.0
20260507034859 60 295 2.6 4.3 0.00 0.00 0.00 88 1016.7
20260507034356 61 255 4.3 5.2 0.00 0.00 0.00 87 1016.6
20260507033854 61 301 3.5 6.1 0.00 0.00 0.00 87 1016.7
20260507033351 61 272 4.3 6.1 0.00 0.00 0.00 86 1016.5
20260507032848 61 288 3.5 4.3 0.00 0.00 0.00 86 1016.5
20260507032345 61 250 4.3 7.8 0.00 0.00 0.00 87 1016.7
20260507031841 61 174 7.0 8.7 0.00 0.00 0.00 87 1016.5
20260507031338 61 296 4.3 6.1 0.00 0.00 0.00 87 1016.5
20260507030835 61 209 5.2 6.1 0.00 0.00 0.00 87 1016.5
20260507030332 61 294 7.8 9.6 0.00 0.00 0.00 86 1016.4
20260507025829 61 270 5.2 7.0 0.00 0.00 0.00 87 1016.3
20260507025326 61 244 4.3 7.0 0.00 0.00 0.00 88 1016.3
20260507024824 61 319 4.3 6.1 0.00 0.00 0.00 87 1016.3
20260507024321 61 307 5.2 6.1 0.00 0.00 0.00 86 1016.2
20260507023817 62 215 2.6 6.1 0.00 0.00 0.00 86 1016.2
20260507023313 62 250 3.5 6.1 0.00 0.00 0.00 85 1016.2
20260507022810 62 287 5.2 6.1 0.00 0.00 0.00 85 1016.0
20260507022307 62 276 3.5 6.1 0.00 0.00 0.00 83 1016.1
20260507021803 62 245 5.2 7.0 0.00 0.00 0.00 83 1016.2
20260507021259 62 232 1.7 5.2 0.00 0.00 0.00 82 1015.9
20260507020757 63 232 6.1 9.6 0.00 0.00 0.00 81 1015.9
20260507020253 62 252 5.2 7.0 0.00 0.00 0.00 82 1016.0
20260507015751 62 247 5.2 6.1 0.00 0.00 0.00 83 1015.9
20260507015248 63 256 3.5 4.3 0.00 0.00 0.00 82 1015.9
20260507014745 63 81 5.2 7.8 0.00 0.00 0.00 82 1016.0
20260507014241 63 193 3.5 6.1 0.00 0.00 0.00 81 1016.1
20260507013738 64 262 7.0 9.6 0.00 0.00 0.00 81 1015.9
20260507013236 63 173 5.2 7.8 0.00 0.00 0.00 82 1016.1
20260507012732 63 248 7.0 8.7 0.00 0.00 0.00 82 1016.0
20260507012227 62 267 6.1 7.0 0.00 0.00 0.00 84 1015.9
20260507011726 63 284 6.1 7.8 0.00 0.00 0.00 82 1015.8
20260507011222 63 258 4.3 5.2 0.00 0.00 0.00 82 1015.9
20260507010721 64 293 7.8 9.6 0.00 0.00 0.00 82 1015.9
20260507010217 63 258 7.8 11.3 0.00 0.00 0.00 82 1015.9
20260507005715 64 247 6.1 7.0 0.00 0.00 0.00 82 1015.9
20260507005211 63 264 7.0 8.7 0.00 0.00 0.00 83 1015.8
20260507004708 64 340 1.7 4.3 0.00 0.00 0.00 81 1015.7
20260507004206 64 232 6.1 7.8 0.00 0.00 0.00 81 1015.9
20260507003702 64 267 7.0 9.6 0.00 0.00 0.00 80 1015.9
20260507003157 64 266 8.7 12.2 0.00 0.00 0.00 80 1016.0
20260507002654 65 191 4.3 5.2 0.00 0.00 0.00 79 1015.8
20260507002149 66 225 5.2 11.3 0.00 0.00 0.00 79 1016.2
20260507001647 65 254 8.7 9.6 0.00 0.00 0.00 81 1016.1
20260507001144 65 277 6.1 11.3 0.00 0.00 0.00 79 1016.2
20260507000640 65 229 2.6 4.3 0.00 0.00 0.00 80 1015.8
20260507000135 65 241 7.0 8.7 0.00 0.00 0.00 79 1015.6
20260506235634 65 274 9.6 12.2 0.00 0.00 0.00 80 1016.0
20260506235133 65 227 7.0 8.7 0.00 0.00 0.00 80 1015.8
20260506234631 65 225 4.3 6.1 0.00 0.00 0.00 79 1015.9
20260506234128 66 240 2.6 4.3 0.00 0.00 0.00 79 1015.8
20260506233625 66 315 3.5 4.3 0.00 0.00 0.00 78 1016.0
20260506233122 66 267 1.7 2.6 0.00 0.00 0.00 78 1015.9
20260506232618 66 204 4.3 7.0 0.00 0.00 0.00 77 1016.0
20260506232113 65 271 8.7 11.3 0.00 0.00 0.00 78 1016.1
20260506231611 65 263 6.1 7.0 0.00 0.00 0.00 77 1016.2
20260506231109 65 303 3.5 5.2 0.00 0.00 0.00 78 1016.3
20260506230605 66 234 7.0 7.8 0.00 0.00 0.00 76 1016.0
20260506225559 66 333 3.5 5.2 0.00 0.00 0.00 76 1016.1
20260506225055 65 306 7.8 11.3 0.00 0.00 0.00 77 1016.2
20260506224553 66 262 7.0 8.7 0.00 0.00 0.00 77 1016.2
20260506224049 65 254 9.6 12.2 0.00 0.00 0.00 77 1016.4
20260506223545 66 239 6.1 7.8 0.00 0.00 0.00 75 1016.4
20260506223042 66 264 5.2 6.1 0.00 0.00 0.00 77 1016.3
20260506222538 65 238 6.1 7.0 0.00 0.00 0.00 77 1016.7
20260506222035 65 301 4.3 7.8 0.00 0.00 0.00 76 1016.4
20260506221533 65 299 2.6 6.1 0.00 0.00 0.00 77 1016.5
20260506221030 65 265 7.8 11.3 0.00 0.00 0.00 78 1016.7
20260506220526 65 285 6.1 8.7 0.00 0.00 0.00 79 1016.7
20260506220022 66 289 6.1 7.8 0.00 0.00 0.00 76 1016.8
20260506215519 66 258 3.5 5.2 0.00 0.00 0.00 77 1017.0
20260506215014 66 241 5.2 9.6 0.00 0.00 0.00 78 1017.0
20260506214512 65 215 4.3 6.1 0.00 0.00 0.00 78 1016.9
20260506214009 65 250 4.3 5.2 0.00 0.00 0.00 78 1017.0
20260506213507 65 265 5.2 7.8 0.00 0.00 0.00 78 1017.0
20260506213003 65 261 7.8 8.7 0.00 0.00 0.00 78 1017.0
20260506212500 66 253 7.0 8.7 0.00 0.00 0.00 77 1016.9
20260506211949 66 253 8.7 11.3 0.00 0.00 0.00 76 1017.0
20260506211445 66 268 6.1 7.0 0.00 0.00 0.00 77 1017.1
20260506210943 66 124 2.6 4.3 0.00 0.00 0.00 77 1017.3
20260506210439 66 284 7.0 8.7 0.00 0.00 0.00 77 1017.3
20260506205937 65 332 6.1 7.8 0.00 0.00 0.00 78 1017.4
20260506205433 65 272 4.3 5.2 0.00 0.00 0.00 79 1017.3
20260506204928 66 254 7.8 11.3 0.00 0.00 0.00 76 1017.4
20260506204427 66 293 5.2 6.1 0.00 0.00 0.00 76 1017.5
20260506203924 65 316 2.6 4.3 0.00 0.00 0.00 80 1017.6
20260506203421 65 268 7.8 8.7 0.00 0.00 0.00 79 1017.6
20260506202918 65 302 7.8 8.7 0.00 0.00 0.00 79 1017.7
20260506202415 65 58 3.5 6.1 0.00 0.00 0.00 79 1017.4
20260506201911 64 328 5.2 7.0 0.00 0.00 0.00 80 1017.7
20260506201409 64 247 7.0 9.6 0.00 0.00 0.00 80 1017.7
20260506200905 64 321 7.0 8.7 0.00 0.00 0.00 80 1017.6
20260506200401 65 262 2.6 5.2 0.00 0.00 0.00 79 1017.7
20260506195858 65 227 7.8 7.8 0.00 0.00 0.00 79 1017.8
20260506195355 65 220 6.1 9.6 0.00 0.00 0.00 77 1017.6
20260506194852 64 231 6.1 7.8 0.00 0.00 0.00 79 1017.8
20260506194349 65 218 4.3 6.1 0.00 0.00 0.00 79 1017.9
20260506193846 65 261 3.5 5.2 0.00 0.00 0.00 78 1018.0
20260506193342 65 271 5.2 7.0 0.00 0.00 0.00 77 1017.9
20260506192839 65 226 4.3 6.1 0.00 0.00 0.00 77 1017.7
20260506192336 65 291 6.1 7.0 0.00 0.00 0.00 78 1018.0
20260506191833 65 247 6.1 7.8 0.00 0.00 0.00 77 1018.1
20260506191329 65 212 2.6 7.0 0.00 0.00 0.00 78 1018.3
20260506190827 65 268 2.6 2.6 0.00 0.00 0.00 76 1018.2
20260506190323 65 287 5.2 7.0 0.00 0.00 0.00 77 1018.1
20260506185820 64 226 5.2 7.0 0.00 0.00 0.00 78 1018.1
20260506185317 65 228 4.3 6.1 0.00 0.00 0.00 77 1018.3
20260506184813 64 236 7.0 9.6 0.00 0.00 0.00 78 1018.1
20260506184311 64 224 6.1 9.6 0.00 0.00 0.00 79 1018.3
20260506183808 64 224 5.2 7.0 0.00 0.00 0.00 78 1018.2
20260506183303 64 266 4.3 6.1 0.00 0.00 0.00 78 1018.5
20260506182801 65 288 2.6 2.6 0.00 0.00 0.00 78 1018.6
20260506182258 64 234 7.0 7.8 0.00 0.00 0.00 79 1018.4
20260506181755 65 217 5.2 7.0 0.00 0.00 0.00 76 1018.3
20260506181253 65 294 7.0 7.8 0.00 0.00 0.00 73 1018.5
20260506180750 64 226 3.5 7.0 0.00 0.00 0.00 76 1018.4
20260506180246 64 298 6.1 7.8 0.00 0.00 0.00 78 1018.4
20260506175742 64 264 4.3 6.1 0.00 0.00 0.00 78 1018.6
20260506175240 64 285 3.5 4.3 0.00 0.00 0.00 79 1018.5
20260506174737 63 292 4.3 6.1 0.00 0.00 0.00 78 1018.3
20260506174234 63 319 3.5 5.2 0.00 0.00 0.00 78 1018.4
20260506173731 64 322 4.3 7.0 0.00 0.00 0.00 77 1018.4
20260506173227 63 276 2.6 4.3 0.00 0.00 0.00 78 1018.5
20260506172724 64 268 6.1 7.0 0.00 0.00 0.00 76 1018.5
20260506172221 63 233 4.3 6.1 0.00 0.00 0.00 77 1018.2
20260506171718 64 276 6.1 7.8 0.00 0.00 0.00 75 1018.4
20260506171216 64 281 4.3 6.1 0.00 0.00 0.00 76 1018.4
20260506170713 64 352 1.7 2.6 0.00 0.00 0.00 76 1018.2
20260506170210 64 236 3.5 5.2 0.00 0.00 0.00 76 1018.1
20260506165708 64 227 5.2 7.8 0.00 0.00 0.00 75 1018.3
20260506165204 64 333 6.1 7.0 0.00 0.00 0.00 76 1018.0
20260506164702 68 206 4.3 6.1 0.00 0.00 0.00 68 1017.9
20260506164159 68 40 0.0 0.0 0.00 0.00 0.00 66 1018.3
20260506163655 69 351 0.0 0.0 0.00 0.00 0.00 65 1018.2
20260506163150 67 22 0.0 0.0 0.00 0.00 0.00 66 1018.1
20260506162647 67 323 0.0 0.0 0.00 0.00 0.00 68 1018.3
20260506162144 68 310 2.6 2.6 0.00 0.00 0.00 67 1018.1
20260506161641 67 192 0.0 0.0 0.00 0.00 0.00 67 1018.4
20260506161138 67 351 0.0 0.0 0.00 0.00 0.00 66 1018.3
20260506160636 67 340 0.0 0.0 0.00 0.00 0.00 70 1018.3
20260506160132 67 234 0.0 0.0 0.00 0.00 0.00 70 1018.5
20260506155631 66 9 0.0 0.0 0.00 0.00 0.00 72 1018.3
20260506155128 65 33 0.0 0.0 0.00 0.00 0.00 73 1018.2
20260506153231 64 331 0.0 0.0 0.00 0.00 0.00 76 1018.1
20260506152727 63 311 0.0 0.0 0.00 0.00 0.00 78 1018.2
20260506152224 62 32 0.0 0.0 0.00 0.00 0.00 80 1018.4
20260506151724 62 54 0.0 0.9 0.00 0.00 0.00 79 1018.6
20260506151220 62 49 0.0 0.9 0.00 0.00 0.00 78 1018.3
20260506150716 61 28 0.0 0.0 0.00 0.00 0.00 81 1018.3
20260506150214 60 271 0.0 0.0 0.00 0.00 0.00 83 1018.5
20260506145710 60 39 0.0 0.0 0.00 0.00 0.00 82 1018.4
20260506145207 61 20 0.0 0.0 0.00 0.00 0.00 81 1018.4
20260506144705 60 14 0.0 0.0 0.00 0.00 0.00 82 1018.1
20260506144201 60 339 0.0 0.0 0.00 0.00 0.00 82 1018.2
20260506143659 59 32 0.0 0.0 0.00 0.00 0.00 83 1018.1
20260506143156 59 42 0.0 0.0 0.00 0.00 0.00 82 1018.1
20260506142655 60 31 0.0 0.0 0.00 0.00 0.00 82 1018.4
20260506142152 60 9 0.0 0.0 0.00 0.00 0.00 82 1018.2
20260506141650 59 24 0.0 0.0 0.00 0.00 0.00 83 1018.2
20260506141148 59 1 0.0 0.0 0.00 0.00 0.00 84 1018.1
20260506140645 58 350 0.0 0.0 0.00 0.00 0.00 85 1018.1
20260506140142 57 15 0.0 0.0 0.00 0.00 0.00 88 1018.0
20260506135639 56 344 0.0 0.0 0.00 0.00 0.00 89 1018.1
20260506135136 55 358 0.0 0.0 0.00 0.00 0.00 89 1017.9
20260506134632 55 37 0.0 0.0 0.00 0.00 0.00 89 1018.0
20260506134128 55 46 0.0 0.0 0.00 0.00 0.00 89 1017.9
20260506133626 55 46 0.0 0.0 0.00 0.00 0.00 89 1017.9
20260506133122 55 17 0.0 0.0 0.00 0.00 0.00 89 1017.9
20260506132620 55 28 0.0 0.0 0.00 0.00 0.00 89 1017.8
20260506132116 55 26 0.0 0.0 0.00 0.00 0.00 90 1017.8
20260506131614 55 44 0.0 0.0 0.00 0.00 0.00 90 1017.6
20260506131110 55 54 0.0 0.0 0.00 0.00 0.00 90 1017.4
20260506130607 55 41 0.0 0.0 0.00 0.00 0.00 90 1017.6
20260506130105 55 35 0.0 0.0 0.00 0.00 0.00 90 1017.6
20260506125603 55 34 0.0 0.0 0.00 0.00 0.00 90 1017.4
20260506125100 55 40 0.0 0.0 0.00 0.00 0.00 90 1017.3
20260506124558 55 44 0.0 0.0 0.00 0.00 0.00 90 1017.4
20260506124055 55 18 0.0 0.0 0.00 0.00 0.00 90 1017.1
20260506123553 55 36 0.0 0.0 0.00 0.00 0.00 90 1017.1
20260506123051 55 353 0.0 0.0 0.00 0.00 0.00 90 1017.2
20260506122547 55 36 0.0 0.0 0.00 0.00 0.00 91 1017.3
20260506122046 55 352 0.0 0.0 0.00 0.00 0.00 91 1017.2
20260506121543 54 354 0.0 0.0 0.00 0.00 0.00 91 1017.1
20260506121038 55 355 0.0 0.0 0.00 0.00 0.00 91 1017.3
20260506120537 55 17 0.0 0.0 0.00 0.00 0.00 91 1017.1
20260506120034 55 0 0.0 0.0 0.00 0.00 0.00 91 1017.2
20260506115532 55 351 0.0 0.0 0.00 0.00 0.00 91 1017.2
20260506115030 55 343 0.0 0.0 0.00 0.00 0.00 92 1017.2
20260506114527 55 337 0.0 0.0 0.00 0.00 0.00 92 1017.3
20260506114025 55 339 0.0 0.0 0.00 0.00 0.00 92 1017.1
20260506113523 55 6 0.0 0.0 0.00 0.00 0.00 93 1017.1
20260506113020 55 341 0.0 0.0 0.00 0.00 0.00 93 1016.9
20260506112516 54 333 0.0 0.0 0.00 0.00 0.00 93 1017.0
20260506112014 54 325 0.0 0.0 0.00 0.00 0.00 93 1016.9
20260506111512 54 328 0.0 0.0 0.00 0.00 0.00 92 1016.9
20260506111009 54 321 0.0 0.0 0.00 0.00 0.00 92 1017.0
20260506110507 55 327 0.0 0.0 0.00 0.00 0.00 92 1017.1
20260506110004 55 325 0.0 0.0 0.00 0.00 0.00 92 1016.8
20260506105500 55 346 0.0 0.0 0.00 0.00 0.00 92 1017.1
20260506104957 55 327 0.0 0.0 0.00 0.00 0.00 91 1017.0
20260506104455 56 340 0.0 0.0 0.00 0.00 0.00 91 1017.1
20260506103953 56 21 0.0 0.0 0.00 0.00 0.00 91 1017.0
20260506103450 56 351 0.0 0.0 0.00 0.00 0.00 91 1016.9
20260506102946 56 15 0.0 0.0 0.00 0.00 0.00 91 1017.1
20260506102445 56 32 0.0 0.0 0.00 0.00 0.00 91 1017.0
20260506101942 56 353 0.0 0.0 0.00 0.00 0.00 91 1016.9
20260506101438 56 335 0.0 0.0 0.00 0.00 0.00 90 1017.0
20260506100935 57 326 0.0 0.0 0.00 0.00 0.00 90 1016.8
20260506100434 57 336 0.0 0.0 0.00 0.00 0.00 90 1016.8
20260506095931 57 357 0.0 0.0 0.00 0.00 0.00 90 1016.9
20260506095430 57 308 0.0 0.0 0.00 0.00 0.00 90 1017.1
20260506094926 57 322 0.0 0.0 0.00 0.00 0.00 90 1017.0
20260506094424 57 326 0.0 0.0 0.00 0.00 0.00 90 1016.9
20260506093922 57 326 0.0 0.0 0.00 0.00 0.00 89 1017.0
20260506093419 57 316 0.0 0.0 0.00 0.00 0.00 89 1016.9
20260506092917 58 199 0.0 0.0 0.00 0.00 0.00 89 1017.1
20260506092415 58 271 0.0 0.0 0.00 0.00 0.00 89 1017.4
20260506091911 58 278 0.0 0.0 0.00 0.00 0.00 89 1017.2
20260506091409 58 282 0.0 0.0 0.00 0.00 0.00 89 1017.2
20260506090906 58 308 0.0 0.0 0.00 0.00 0.00 89 1017.0
20260506090404 58 321 0.0 0.0 0.00 0.00 0.00 89 1017.2
20260506085900 58 273 0.0 0.0 0.00 0.00 0.00 89 1017.3
20260506085357 58 295 0.0 0.0 0.00 0.00 0.00 89 1017.2
20260506084853 58 274 0.0 0.0 0.00 0.00 0.00 89 1017.3
20260506084349 58 248 0.9 0.9 0.00 0.00 0.00 88 1017.2
20260506083846 58 241 0.9 1.7 0.00 0.00 0.00 88 1017.6
20260506083343 58 315 0.0 0.0 0.00 0.00 0.00 88 1017.5
20260506082836 58 298 0.0 0.0 0.00 0.00 0.00 87 1017.5
20260506082332 58 315 0.0 0.0 0.00 0.00 0.00 87 1017.5
20260506081828 58 247 0.0 0.0 0.00 0.00 0.00 87 1017.4
20260506081326 58 311 0.9 1.7 0.00 0.00 0.00 87 1017.2
20260506080824 58 217 0.0 0.0 0.00 0.00 0.00 87 1017.5
20260506080320 57 241 0.0 0.0 0.00 0.00 0.00 87 1017.5
20260506073304 57 335 0.0 0.0 0.00 0.00 0.00 86 1017.5
20260506072800 57 329 0.0 0.0 0.00 0.00 0.00 86 1017.2
20260506072258 57 323 0.0 0.0 0.00 0.00 0.00 86 1017.3
20260506071755 57 327 0.0 0.0 0.00 0.00 0.00 86 1017.2
20260506071253 57 325 0.0 0.0 0.00 0.00 0.00 86 1017.2
20260506070751 57 323 0.0 0.0 0.00 0.00 0.00 86 1017.2
20260506070248 57 342 0.0 0.0 0.00 0.00 0.00 86 1017.2
20260506062224 59 239 1.7 1.7 0.00 0.00 0.00 84 1017.0
20260506061720 59 295 0.0 0.0 0.00 0.00 0.00 84 1016.8
20260506061218 59 242 1.7 1.7 0.00 0.00 0.00 84 1016.9
20260506060717 59 208 0.0 0.9 0.00 0.00 0.00 84 1016.9
20260506060213 59 297 0.0 0.0 0.00 0.00 0.00 85 1016.9